Location: Ku?niki
(51.4449°N, 17.8974°E)
Time: 07:57:45
(UTC+00:00)

Tiangong - Visible Passes

Search period start: 24 January 2022 00:00
Search period end: 03 February 2022 00:00
Orbit: 383 x 386 km, 41.5° (Epoch: 23 January)

Date Brightness Start Highest point End Pass type
(mag) Time Alt. Az. Time Alt. Az. Time Alt. Az.
30 Jan 3.7 17:04:49 10° S 17:05:22 10° SSE 17:05:54 10° SSE visible
31 Jan 3.5 17:40:03 10° SSW 17:41:44 14° S 17:41:44 14° S visible
01 Feb 3.7 16:40:43 10° SSW 16:42:08 12° S 16:43:34 10° SE visible
01 Feb 4.1 18:16:35 10° SW 18:16:57 11° SSW 18:16:57 11° SSW visible
02 Feb 3.6 17:16:46 10° SW 17:18:31 14° S 17:19:58 11° SSE visible
